FID,VOYAGENAME,LATITUDE_DEGNORTH,LONGITUDE_DEGEAST,DATE_TIME_UTC,GPS_QC,WTR_DEPTH_M,WTR_DEPTH_QC,FLUORESCENCE_NOUNIT,FLUORESCENCE_QC,SALINITY_TSG_PSU,SALINITY_TSG_QC,TEMP_SEA_WTR_DEGC,TEMP_SEA_WTR_QC,MARLIN_ID,GEO_LOCATION
LI2015_V16_VOYAGE.08/12/2015 00:37:00,LI2015_V16,-31.83187,115.69274,08/12/2015 00:37:00,0,15.57424,0,0.0906,0,35.128,0,20.95793,0,14642,"LINESTRING (115.69274 -31.83187, 115.68804 -31.83425)"
LI2015_V16_VOYAGE.08/12/2015 00:38:00,LI2015_V16,-31.83425,115.68804,08/12/2015 00:38:00,0,12.79574,0,0.09,0,35.077,0,20.88643,0,14642,"LINESTRING (115.68804 -31.83425, 115.6837 -31.83713)"
LI2015_V16_VOYAGE.08/12/2015 00:39:00,LI2015_V16,-31.83713,115.6837,08/12/2015 00:39:00,0,18.70389,0,0.09,0,35.056,0,20.5352,0,14642,"LINESTRING (115.6837 -31.83713, 115.67932 -31.84)"
LI2015_V16_VOYAGE.08/12/2015 00:40:00,LI2015_V16,-31.84,115.67932,08/12/2015 00:40:00,0,22.14689,0,0.09,0,35.008,0,20.43987,0,14642,"LINESTRING (115.67932 -31.84, 115.67505 -31.84309)"
LI2015_V16_VOYAGE.08/12/2015 00:41:00,LI2015_V16,-31.84309,115.67505,08/12/2015 00:41:00,0,23.89073,0,0.09,0,34.963,0,20.36809,0,14642,"LINESTRING (115.67505 -31.84309, 115.67106 -31.84633)"
LI2015_V16_VOYAGE.08/12/2015 00:42:00,LI2015_V16,-31.84633,115.67106,08/12/2015 00:42:00,0,24.38933,0,0.0845,0,34.935,0,20.30858,0,14642,"LINESTRING (115.67106 -31.84633, 115.66592 -31.848)"
LI2015_V16_VOYAGE.08/12/2015 00:43:00,LI2015_V16,-31.848,115.66592,08/12/2015 00:43:00,0,25.30391,0,0.09,0,34.918,0,20.1643,0,14642,"LINESTRING (115.66592 -31.848, 115.66083 -31.84981)"
LI2015_V16_VOYAGE.08/12/2015 00:46:00,LI2015_V16,-31.85393,115.65103,08/12/2015 00:46:00,0,28.8,0,0.08,0,34.828,0,19.96324,0,14642,"LINESTRING (115.65103 -31.85393, 115.64617 -31.85614)"
LI2015_V16_VOYAGE.08/12/2015 00:48:00,LI2015_V16,-31.85832,115.64131,08/12/2015 00:48:00,0,28.45717,0,0.08,0,34.819,0,19.99212,0,14642,"LINESTRING (115.64131 -31.85832, 115.63657 -31.86082)"
LI2015_V16_VOYAGE.08/12/2015 00:51:00,LI2015_V16,-31.86612,115.62748,08/12/2015 00:51:00,0,30.54564,0,0.08,0,34.816,0,20.03375,0,14642,"LINESTRING (115.62748 -31.86612, 115.62261 -31.86825)"
LI2015_V16_VOYAGE.08/12/2015 00:53:00,LI2015_V16,-31.87059,115.61786,08/12/2015 00:53:00,0,32.0347,0,0.0754,0,34.819,0,20.03213,0,14642,"LINESTRING (115.61786 -31.87059, 115.61304 -31.87283)"
LI2015_V16_VOYAGE.08/12/2015 00:56:00,LI2015_V16,-31.87776,115.60373,08/12/2015 00:56:00,0,32.76925,0,0.08,0,34.816,0,19.95665,0,14642,"LINESTRING (115.60373 -31.87776, 115.59892 -31.88019)"
LI2015_V16_VOYAGE.08/12/2015 00:58:00,LI2015_V16,-31.88263,115.59424,08/12/2015 00:58:00,0,33,0,0.0782,0,34.813,0,19.912,0,14642,"LINESTRING (115.59424 -31.88263, 115.58961 -31.88505)"
LI2015_V16_VOYAGE.08/12/2015 01:01:00,LI2015_V16,-31.88981,115.58015,08/12/2015 01:01:00,0,32.86824,0,0.08,0,34.825,0,20.13151,0,14642,"LINESTRING (115.58015 -31.88981, 115.57538 -31.89211)"
LI2015_V16_VOYAGE.08/12/2015 01:04:00,LI2015_V16,-31.89699,115.566,08/12/2015 01:04:00,0,33.32645,0,0.08,0,34.859,0,20.17781,0,14642,"LINESTRING (115.566 -31.89699, 115.56124 -31.89945)"
LI2015_V16_VOYAGE.08/12/2015 01:06:00,LI2015_V16,-31.90177,115.55646,08/12/2015 01:06:00,0,32.53539,0,0.08,0,34.859,0,20.15422,0,14642,"LINESTRING (115.55646 -31.90177, 115.55197 -31.90447)"
LI2015_V16_VOYAGE.08/12/2015 01:09:00,LI2015_V16,-31.90942,115.54269,08/12/2015 01:09:00,0,33.55673,0,0.0782,0,34.854,0,20.15018,0,14642,"LINESTRING (115.54269 -31.90942, 115.53798 -31.91183)"
LI2015_V16_VOYAGE.08/12/2015 01:11:00,LI2015_V16,-31.91399,115.53309,08/12/2015 01:11:00,0,33.9,0,0.0734,0,34.849,0,20.13254,0,14642,"LINESTRING (115.53309 -31.91399, 115.52817 -31.91626)"
LI2015_V16_VOYAGE.08/12/2015 01:14:00,LI2015_V16,-31.92123,115.51883,08/12/2015 01:14:00,0,34.82549,0,0.08,0,34.842,0,20.12719,0,14642,"LINESTRING (115.51883 -31.92123, 115.51406 -31.92355)"
LI2015_V16_VOYAGE.08/12/2015 01:16:00,LI2015_V16,-31.92603,115.50941,08/12/2015 01:16:00,0,35.97115,0,0.0772,0,34.839,0,20.11536,0,14642,"LINESTRING (115.50941 -31.92603, 115.50493 -31.92874)"
LI2015_V16_VOYAGE.08/12/2015 01:19:00,LI2015_V16,-31.93349,115.49544,08/12/2015 01:19:00,0,38.81443,0,0.07,0,34.836,0,20.10975,0,14642,"LINESTRING (115.49544 -31.93349, 115.49061 -31.9359)"
LI2015_V16_VOYAGE.08/12/2015 01:21:00,LI2015_V16,-31.93813,115.48576,08/12/2015 01:21:00,0,39.82027,0,0.0792,0,34.834,0,20.11024,0,14642,"LINESTRING (115.48576 -31.93813, 115.48098 -31.94047)"
LI2015_V16_VOYAGE.08/12/2015 01:24:00,LI2015_V16,-31.94563,115.47171,08/12/2015 01:24:00,0,41.33644,0,0.07,0,34.829,0,20.08527,0,14642,"LINESTRING (115.47171 -31.94563, 115.46702 -31.94808)"
LI2015_V16_VOYAGE.08/12/2015 01:26:00,LI2015_V16,-31.95046,115.46232,08/12/2015 01:26:00,0,43.0005,0,0.08,0,34.826,0,20.06684,0,14642,"LINESTRING (115.46232 -31.95046, 115.45758 -31.9529)"
LI2015_V16_VOYAGE.08/12/2015 01:29:00,LI2015_V16,-31.95764,115.44797,08/12/2015 01:29:00,0,44.04168,0,0.08,0,34.813,0,19.79195,0,14642,"LINESTRING (115.44797 -31.95764, 115.44315 -31.9599)"
LI2015_V16_VOYAGE.08/12/2015 01:31:00,LI2015_V16,-31.96227,115.43841,08/12/2015 01:31:00,0,40.91914,0,0.08,0,34.779,0,19.90853,0,14642,"LINESTRING (115.43841 -31.96227, 115.43383 -31.96488)"
LI2015_V16_VOYAGE.08/12/2015 01:34:00,LI2015_V16,-31.96969,115.42444,08/12/2015 01:34:00,0,43.71147,0,0.08,0,34.775,0,20.08423,0,14642,"LINESTRING (115.42444 -31.96969, 115.41966 -31.97198)"
LI2015_V16_VOYAGE.08/12/2015 01:37:00,LI2015_V16,-31.97691,115.4103,08/12/2015 01:37:00,0,36.36662,0,0.08,0,34.775,0,20.20737,0,14642,"LINESTRING (115.4103 -31.97691, 115.40555 -31.97926)"
LI2015_V16_VOYAGE.08/12/2015 01:39:00,LI2015_V16,-31.98159,115.40077,08/12/2015 01:39:00,0,48.27908,0,0.08,0,34.797,0,20.38511,0,14642,"LINESTRING (115.40077 -31.98159, 115.39609 -31.98411)"
LI2015_V16_VOYAGE.08/12/2015 01:42:00,LI2015_V16,-31.98893,115.38678,08/12/2015 01:42:00,0,59.55865,0,0.0819,0,34.811,0,20.47661,0,14642,"LINESTRING (115.38678 -31.98893, 115.3833 -31.99124)"
LI2015_V16_VOYAGE.08/12/2015 01:44:00,LI2015_V16,-31.99157,115.38448,08/12/2015 01:44:00,0,62.00957,0,0.0865,0,34.813,0,,165,14642,"LINESTRING (115.38448 -31.99157, 115.3845 -31.99149)"
LI2015_V16_VOYAGE.08/12/2015 01:47:00,LI2015_V16,-31.99126,115.38445,08/12/2015 01:47:00,0,61.80235,0,0.08,0,34.81,0,,165,14642,"LINESTRING (115.38445 -31.99126, 115.38446 -31.99115)"
LI2015_V16_VOYAGE.08/12/2015 01:49:00,LI2015_V16,-31.99107,115.38446,08/12/2015 01:49:00,0,62.09424,0,0.09,0,34.814,0,,165,14642,"LINESTRING (115.38446 -31.99107, 115.38444 -31.99099)"
LI2015_V16_VOYAGE.08/12/2015 01:52:00,LI2015_V16,-31.99081,115.3843,08/12/2015 01:52:00,0,62.38948,0,0.0847,0,34.814,0,,165,14642,"LINESTRING (115.3843 -31.99081, 115.38418 -31.99069)"
LI2015_V16_VOYAGE.08/12/2015 01:55:00,LI2015_V16,-31.99046,115.38413,08/12/2015 01:55:00,0,62,0,0.08,0,34.814,0,,165,14642,"LINESTRING (115.38413 -31.99046, 115.38415 -31.99036)"
LI2015_V16_VOYAGE.08/12/2015 01:57:00,LI2015_V16,-31.99029,115.38413,08/12/2015 01:57:00,0,62.79564,0,0.09,0,34.814,0,,165,14642,"LINESTRING (115.38413 -31.99029, 115.38408 -31.99023)"
LI2015_V16_VOYAGE.08/12/2015 02:00:00,LI2015_V16,-31.98999,115.3839,08/12/2015 02:00:00,0,62.5812,0,0.08,0,34.815,0,,165,14642,"LINESTRING (115.3839 -31.98999, 115.38413 -31.98986)"
LI2015_V16_VOYAGE.08/12/2015 02:02:00,LI2015_V16,-31.98929,115.38507,08/12/2015 02:02:00,0,61.49447,0,0.0826,0,34.815,0,,165,14642,"LINESTRING (115.38507 -31.98929, 115.38467 -31.98965)"
LI2015_V16_VOYAGE.08/12/2015 02:03:00,LI2015_V16,-31.98965,115.38467,08/12/2015 02:03:00,0,61.77507,0,0.08,0,34.815,0,,165,14642,"LINESTRING (115.38467 -31.98965, 115.38405 -31.9899)"
LI2015_V16_VOYAGE.08/12/2015 02:04:00,LI2015_V16,-31.9899,115.38405,08/12/2015 02:04:00,0,62.07266,0,0.08,0,34.815,0,,165,14642,"LINESTRING (115.38405 -31.9899, 115.38404 -31.98979)"
LI2015_V16_VOYAGE.08/12/2015 02:05:00,LI2015_V16,-31.98979,115.38404,08/12/2015 02:05:00,0,62.28107,0,0.0893,0,34.813,0,,165,14642,"LINESTRING (115.38404 -31.98979, 115.38401 -31.9897)"
LI2015_V16_VOYAGE.08/12/2015 02:06:00,LI2015_V16,-31.9897,115.38401,08/12/2015 02:06:00,0,62.95894,0,0.09,0,34.814,0,,165,14642,"LINESTRING (115.38401 -31.9897, 115.38365 -31.98986)"
LI2015_V16_VOYAGE.08/12/2015 02:07:00,LI2015_V16,-31.98986,115.38365,08/12/2015 02:07:00,0,63.58893,0,0.0862,0,34.813,0,,165,14642,"LINESTRING (115.38365 -31.98986, 115.38339 -31.98995)"
LI2015_V16_VOYAGE.08/12/2015 02:08:00,LI2015_V16,-31.98995,115.38339,08/12/2015 02:08:00,0,64.63329,0,0.08,0,34.81,0,,165,14642,"LINESTRING (115.38339 -31.98995, 115.38329 -31.98993)"
LI2015_V16_VOYAGE.08/12/2015 02:09:00,LI2015_V16,-31.98993,115.38329,08/12/2015 02:09:00,0,65.14051,0,0.08,0,34.811,0,,165,14642,"LINESTRING (115.38329 -31.98993, 115.38326 -31.98987)"
LI2015_V16_VOYAGE.08/12/2015 02:12:00,LI2015_V16,-31.98966,115.38316,08/12/2015 02:12:00,0,64.28281,0,0.0898,0,34.807,0,,165,14642,"LINESTRING (115.38316 -31.98966, 115.38315 -31.98954)"
LI2015_V16_VOYAGE.08/12/2015 02:15:00,LI2015_V16,-31.98929,115.3831,08/12/2015 02:15:00,0,64.88271,0,0.08,0,34.81,0,,165,14642,"LINESTRING (115.3831 -31.98929, 115.38308 -31.9892)"
LI2015_V16_VOYAGE.08/12/2015 02:17:00,LI2015_V16,-31.9891,115.38306,08/12/2015 02:17:00,0,65.15348,0,0.0734,0,34.813,0,,165,14642,"LINESTRING (115.38306 -31.9891, 115.38305 -31.98901)"
LI2015_V16_VOYAGE.08/12/2015 02:20:00,LI2015_V16,-31.98884,115.3829,08/12/2015 02:20:00,0,65.4993,0,0.08,0,34.811,0,,165,14642,"LINESTRING (115.3829 -31.98884, 115.38282 -31.98877)"
LI2015_V16_VOYAGE.08/12/2015 02:22:00,LI2015_V16,-31.98867,115.38274,08/12/2015 02:22:00,0,65.33562,0,0.087,0,34.814,0,,165,14642,"LINESTRING (115.38274 -31.98867, 115.38236 -31.98821)"
LI2015_V16_VOYAGE.08/12/2015 02:25:00,LI2015_V16,-31.98769,115.38571,08/12/2015 02:25:00,0,60.39354,0,0.08,0,34.818,0,,165,14642,"LINESTRING (115.38571 -31.98769, 115.38741 -31.98727)"
LI2015_V16_VOYAGE.08/12/2015 02:28:00,LI2015_V16,-31.9864,115.39084,08/12/2015 02:28:00,0,58.5253,0,0.08,0,34.82,0,,165,14642,"LINESTRING (115.39084 -31.9864, 115.39252 -31.98574)"
LI2015_V16_VOYAGE.08/12/2015 02:30:00,LI2015_V16,-31.98461,115.39357,08/12/2015 02:30:00,0,54.03428,0,0.0712,0,34.82,0,,165,14642,"LINESTRING (115.39357 -31.98461, 115.39214 -31.98392)"
LI2015_V16_VOYAGE.08/12/2015 02:33:00,LI2015_V16,-31.98637,115.39054,08/12/2015 02:33:00,0,58.44164,0,0.08,0,34.821,0,,165,14642,"LINESTRING (115.39054 -31.98637, 115.38971 -31.9876)"
LI2015_V16_VOYAGE.08/12/2015 02:35:00,LI2015_V16,-31.98897,115.38907,08/12/2015 02:35:00,0,58.60987,0,0.08,0,34.822,0,,165,14642,"LINESTRING (115.38907 -31.98897, 115.38881 -31.99043)"
LI2015_V16_VOYAGE.08/12/2015 02:38:00,LI2015_V16,-31.99258,115.38656,08/12/2015 02:38:00,0,60.09634,0,0.0794,0,34.822,0,,165,14642,"LINESTRING (115.38656 -31.99258, 115.38535 -31.99205)"
LI2015_V16_VOYAGE.08/12/2015 02:41:00,LI2015_V16,-31.98902,115.38632,08/12/2015 02:41:00,0,59.50245,0,0.0712,0,34.819,0,,165,14642,"LINESTRING (115.38632 -31.98902, 115.3871 -31.9876)"
LI2015_V16_VOYAGE.08/12/2015 02:43:00,LI2015_V16,-31.98709,115.38873,08/12/2015 02:43:00,0,59.37804,0,0.08,0,34.821,0,,165,14642,"LINESTRING (115.38873 -31.98709, 115.38994 -31.98634)"
LI2015_V16_VOYAGE.08/12/2015 02:46:00,LI2015_V16,-31.9868,115.38724,08/12/2015 02:46:00,0,59.36394,0,0.08,0,34.824,0,,165,14642,"LINESTRING (115.38724 -31.9868, 115.38648 -31.98816)"
LI2015_V16_VOYAGE.08/12/2015 02:48:00,LI2015_V16,-31.98958,115.38625,08/12/2015 02:48:00,0,59.14643,0,0.08,0,34.822,0,,165,14642,"LINESTRING (115.38625 -31.98958, 115.3861 -31.99104)"
LI2015_V16_VOYAGE.08/12/2015 02:51:00,LI2015_V16,-31.99282,115.38374,08/12/2015 02:51:00,0,63.45513,0,0.08,0,34.818,0,,165,14642,"LINESTRING (115.38374 -31.99282, 115.3823 -31.99187)"
LI2015_V16_VOYAGE.08/12/2015 02:54:00,LI2015_V16,-31.989,115.38348,08/12/2015 02:54:00,0,65.6863,0,0.08,0,34.818,0,,165,14642,"LINESTRING (115.38348 -31.989, 115.38465 -31.98775)"
LI2015_V16_VOYAGE.08/12/2015 02:56:00,LI2015_V16,-31.98743,115.38639,08/12/2015 02:56:00,0,58.22233,0,0.08,0,34.822,0,,165,14642,"LINESTRING (115.38639 -31.98743, 115.38818 -31.9875)"
LI2015_V16_VOYAGE.08/12/2015 02:59:00,LI2015_V16,-31.98564,115.39098,08/12/2015 02:59:00,0,56.77868,0,0.0722,0,34.823,0,,165,14642,"LINESTRING (115.39098 -31.98564, 115.38983 -31.98482)"
LI2015_V16_VOYAGE.08/12/2015 03:01:00,LI2015_V16,-31.98598,115.38888,08/12/2015 03:01:00,0,59.19069,0,0.08,0,34.825,0,,165,14642,"LINESTRING (115.38888 -31.98598, 115.38788 -31.98713)"
LI2015_V16_VOYAGE.08/12/2015 03:04:00,LI2015_V16,-31.98962,115.38596,08/12/2015 03:04:00,0,60.0006,0,0.08,0,34.823,0,,165,14642,"LINESTRING (115.38596 -31.98962, 115.38496 -31.99083)"
LI2015_V16_VOYAGE.08/12/2015 03:07:00,LI2015_V16,-31.9911,115.38419,08/12/2015 03:07:00,0,61.99149,0,0.08,0,34.814,0,,165,14642,"LINESTRING (115.38419 -31.9911, 115.38422 -31.9909)"
LI2015_V16_VOYAGE.08/12/2015 03:09:00,LI2015_V16,-31.99076,115.3843,08/12/2015 03:09:00,0,62.3272,0,0.075,0,34.816,0,,165,14642,"LINESTRING (115.3843 -31.99076, 115.38461 -31.99064)"
LI2015_V16_VOYAGE.08/12/2015 03:12:00,LI2015_V16,-31.98995,115.38517,08/12/2015 03:12:00,0,60.02383,0,0.08,0,34.817,0,,165,14642,"LINESTRING (115.38517 -31.98995, 115.38545 -31.98948)"
LI2015_V16_VOYAGE.08/12/2015 03:14:00,LI2015_V16,-31.98918,115.38538,08/12/2015 03:14:00,0,61.07276,0,0.0713,0,34.823,0,,165,14642,"LINESTRING (115.38538 -31.98918, 115.38641 -31.98834)"
LI2015_V16_VOYAGE.08/12/2015 03:17:00,LI2015_V16,-31.98638,115.39058,08/12/2015 03:17:00,0,58.70556,0,0.08,0,34.824,0,21.10731,0,14642,"LINESTRING (115.39058 -31.98638, 115.39347 -31.98494)"
LI2015_V16_VOYAGE.08/12/2015 03:20:00,LI2015_V16,-31.98189,115.39917,08/12/2015 03:20:00,0,51.2,0,0.08,0,34.823,0,21.03884,0,14642,"LINESTRING (115.39917 -31.98189, 115.40202 -31.98042)"
LI2015_V16_VOYAGE.08/12/2015 03:22:00,LI2015_V16,-31.97901,115.40489,08/12/2015 03:22:00,0,44.24165,0,0.08,0,34.822,0,21.0257,0,14642,"LINESTRING (115.40489 -31.97901, 115.40775 -31.97758)"
LI2015_V16_VOYAGE.08/12/2015 03:25:00,LI2015_V16,-31.97447,115.41367,08/12/2015 03:25:00,0,39.20788,0,0.0787,0,34.813,0,20.77914,0,14642,"LINESTRING (115.41367 -31.97447, 115.41662 -31.97287)"
LI2015_V16_VOYAGE.08/12/2015 03:27:00,LI2015_V16,-31.97142,115.41967,08/12/2015 03:27:00,0,43.96199,0,0.08,0,34.806,0,20.59094,0,14642,"LINESTRING (115.41967 -31.97142, 115.42267 -31.96985)"
LI2015_V16_VOYAGE.08/12/2015 03:30:00,LI2015_V16,-31.96652,115.42934,08/12/2015 03:30:00,0,39.66987,0,0.08,0,34.792,0,20.65411,0,14642,"LINESTRING (115.42934 -31.96652, 115.43254 -31.96493)"
LI2015_V16_VOYAGE.08/12/2015 03:31:00,LI2015_V16,-31.96493,115.43254,08/12/2015 03:31:00,0,37.50486,0,0.08,0,34.789,0,20.55841,0,14642,"LINESTRING (115.43254 -31.96493, 115.43578 -31.96327)"
LI2015_V16_VOYAGE.08/12/2015 03:32:00,LI2015_V16,-31.96327,115.43578,08/12/2015 03:32:00,0,39.87524,0,0.08,0,34.786,0,20.6028,0,14642,"LINESTRING (115.43578 -31.96327, 115.439 -31.96167)"
LI2015_V16_VOYAGE.08/12/2015 03:33:00,LI2015_V16,-31.96167,115.439,08/12/2015 03:33:00,0,41.16961,0,0.089,0,34.785,0,20.40006,0,14642,"LINESTRING (115.439 -31.96167, 115.44241 -31.96011)"
LI2015_V16_VOYAGE.08/12/2015 03:34:00,LI2015_V16,-31.96011,115.44241,08/12/2015 03:34:00,0,43.3,0,0.08,0,34.782,0,20.54312,0,14642,"LINESTRING (115.44241 -31.96011, 115.4456 -31.95838)"
LI2015_V16_VOYAGE.08/12/2015 03:35:00,LI2015_V16,-31.95838,115.4456,08/12/2015 03:35:00,0,42.41374,0,0.08,0,34.783,0,20.44295,0,14642,"LINESTRING (115.4456 -31.95838, 115.45014 -31.95621)"
LI2015_V16_VOYAGE.08/12/2015 03:36:00,LI2015_V16,-31.95621,115.45014,08/12/2015 03:36:00,0,44,0,0.0786,0,34.782,0,20.47321,0,14642,"LINESTRING (115.45014 -31.95621, 115.45495 -31.95374)"
LI2015_V16_VOYAGE.08/12/2015 03:37:00,LI2015_V16,-31.95374,115.45495,08/12/2015 03:37:00,0,42.8,0,0.08,0,34.78,0,20.61892,0,14642,"LINESTRING (115.45495 -31.95374, 115.45999 -31.95145)"
LI2015_V16_VOYAGE.08/12/2015 03:38:00,LI2015_V16,-31.95145,115.45999,08/12/2015 03:38:00,0,42.3,0,0.0763,0,34.789,0,20.59172,0,14642,"LINESTRING (115.45999 -31.95145, 115.46481 -31.9491)"
LI2015_V16_VOYAGE.08/12/2015 03:39:00,LI2015_V16,-31.9491,115.46481,08/12/2015 03:39:00,0,41.75292,0,0.0768,0,34.807,0,20.57701,0,14642,"LINESTRING (115.46481 -31.9491, 115.46971 -31.94681)"
LI2015_V16_VOYAGE.08/12/2015 03:40:00,LI2015_V16,-31.94681,115.46971,08/12/2015 03:40:00,0,41.97698,0,0.08,0,34.819,0,20.60377,0,14642,"LINESTRING (115.46971 -31.94681, 115.47437 -31.94437)"
LI2015_V16_VOYAGE.08/12/2015 03:41:00,LI2015_V16,-31.94437,115.47437,08/12/2015 03:41:00,0,40.57504,0,0.08,0,34.826,0,20.61437,0,14642,"LINESTRING (115.47437 -31.94437, 115.4792 -31.94207)"
LI2015_V16_VOYAGE.08/12/2015 03:42:00,LI2015_V16,-31.94207,115.4792,08/12/2015 03:42:00,0,40.72345,0,0.07,0,34.829,0,20.56799,0,14642,"LINESTRING (115.4792 -31.94207, 115.48421 -31.9397)"
LI2015_V16_VOYAGE.08/12/2015 03:43:00,LI2015_V16,-31.9397,115.48421,08/12/2015 03:43:00,0,40.05388,0,0.0877,0,34.831,0,20.56244,0,14642,"LINESTRING (115.48421 -31.9397, 115.48902 -31.93726)"
LI2015_V16_VOYAGE.08/12/2015 03:44:00,LI2015_V16,-31.93726,115.48902,08/12/2015 03:44:00,0,39.62308,0,0.0796,0,34.831,0,20.57483,0,14642,"LINESTRING (115.48902 -31.93726, 115.49404 -31.93497)"
LI2015_V16_VOYAGE.08/12/2015 03:45:00,LI2015_V16,-31.93497,115.49404,08/12/2015 03:45:00,0,39.17778,0,0.08,0,34.832,0,20.54362,0,14642,"LINESTRING (115.49404 -31.93497, 115.49888 -31.93251)"
LI2015_V16_VOYAGE.08/12/2015 03:46:00,LI2015_V16,-31.93251,115.49888,08/12/2015 03:46:00,0,37.95724,0,0.0759,0,34.834,0,20.54462,0,14642,"LINESTRING (115.49888 -31.93251, 115.5036 -31.92998)"
LI2015_V16_VOYAGE.08/12/2015 03:47:00,LI2015_V16,-31.92998,115.5036,08/12/2015 03:47:00,0,37.16278,0,0.08,0,34.835,0,20.53137,0,14642,"LINESTRING (115.5036 -31.92998, 115.50846 -31.92762)"
LI2015_V16_VOYAGE.08/12/2015 03:48:00,LI2015_V16,-31.92762,115.50846,08/12/2015 03:48:00,0,35.93563,0,0.08,0,34.835,0,20.53501,0,14642,"LINESTRING (115.50846 -31.92762, 115.51353 -31.92535)"
LI2015_V16_VOYAGE.08/12/2015 03:49:00,LI2015_V16,-31.92535,115.51353,08/12/2015 03:49:00,0,35.14141,0,0.076,0,34.838,0,20.55809,0,14642,"LINESTRING (115.51353 -31.92535, 115.51833 -31.92276)"
LI2015_V16_VOYAGE.08/12/2015 03:50:00,LI2015_V16,-31.92276,115.51833,08/12/2015 03:50:00,0,35.03619,0,0.0732,0,34.839,0,20.54926,0,14642,"LINESTRING (115.51833 -31.92276, 115.52332 -31.92059)"
LI2015_V16_VOYAGE.08/12/2015 03:51:00,LI2015_V16,-31.92059,115.52332,08/12/2015 03:51:00,0,34.8,0,0.07,0,34.841,0,20.56046,0,14642,"LINESTRING (115.52332 -31.92059, 115.5282 -31.91798)"
LI2015_V16_VOYAGE.08/12/2015 03:52:00,LI2015_V16,-31.91798,115.5282,08/12/2015 03:52:00,0,34.06243,0,0.07,0,34.842,0,20.509,0,14642,"LINESTRING (115.5282 -31.91798, 115.53308 -31.91555)"
LI2015_V16_VOYAGE.08/12/2015 03:53:00,LI2015_V16,-31.91555,115.53308,08/12/2015 03:53:00,0,33.56192,0,0.075,0,34.843,0,20.44068,0,14642,"LINESTRING (115.53308 -31.91555, 115.53783 -31.91312)"
LI2015_V16_VOYAGE.08/12/2015 03:54:00,LI2015_V16,-31.91312,115.53783,08/12/2015 03:54:00,0,33.8,0,0.0724,0,34.842,0,20.44957,0,14642,"LINESTRING (115.53783 -31.91312, 115.54263 -31.91077)"
LI2015_V16_VOYAGE.08/12/2015 03:55:00,LI2015_V16,-31.91077,115.54263,08/12/2015 03:55:00,0,33.6,0,0.07,0,34.839,0,20.4684,0,14642,"LINESTRING (115.54263 -31.91077, 115.54742 -31.90821)"
LI2015_V16_VOYAGE.08/12/2015 03:56:00,LI2015_V16,-31.90821,115.54742,08/12/2015 03:56:00,0,33.2,0,0.077,0,34.84,0,20.43777,0,14642,"LINESTRING (115.54742 -31.90821, 115.55221 -31.90577)"
LI2015_V16_VOYAGE.08/12/2015 03:57:00,LI2015_V16,-31.90577,115.55221,08/12/2015 03:57:00,0,33.25916,0,0.0742,0,34.843,0,20.47889,0,14642,"LINESTRING (115.55221 -31.90577, 115.55728 -31.90324)"
LI2015_V16_VOYAGE.08/12/2015 03:58:00,LI2015_V16,-31.90324,115.55728,08/12/2015 03:58:00,0,32.65832,0,0.0714,0,34.848,0,20.46117,0,14642,"LINESTRING (115.55728 -31.90324, 115.5624 -31.90082)"
LI2015_V16_VOYAGE.08/12/2015 03:59:00,LI2015_V16,-31.90082,115.5624,08/12/2015 03:59:00,0,32.74227,0,0.08,0,34.853,0,20.45401,0,14642,"LINESTRING (115.5624 -31.90082, 115.56716 -31.89828)"
LI2015_V16_VOYAGE.08/12/2015 04:00:00,LI2015_V16,-31.89828,115.56716,08/12/2015 04:00:00,0,33.4,0,0.074,0,34.852,0,20.4378,0,14642,"LINESTRING (115.56716 -31.89828, 115.57181 -31.89576)"
LI2015_V16_VOYAGE.08/12/2015 04:01:00,LI2015_V16,-31.89576,115.57181,08/12/2015 04:01:00,0,32.72565,0,0.08,0,34.85,0,20.47354,0,14642,"LINESTRING (115.57181 -31.89576, 115.57685 -31.89337)"
LI2015_V16_VOYAGE.08/12/2015 04:02:00,LI2015_V16,-31.89337,115.57685,08/12/2015 04:02:00,0,31.86683,0,0.08,0,34.851,0,20.40541,0,14642,"LINESTRING (115.57685 -31.89337, 115.58173 -31.891)"
LI2015_V16_VOYAGE.08/12/2015 04:03:00,LI2015_V16,-31.891,115.58173,08/12/2015 04:03:00,0,32.55501,0,0.08,0,34.852,0,20.40549,0,14642,"LINESTRING (115.58173 -31.891, 115.58632 -31.88846)"
LI2015_V16_VOYAGE.08/12/2015 04:04:00,LI2015_V16,-31.88846,115.58632,08/12/2015 04:04:00,0,32.64557,0,0.07,0,34.848,0,20.45618,0,14642,"LINESTRING (115.58632 -31.88846, 115.59118 -31.88603)"
LI2015_V16_VOYAGE.08/12/2015 04:05:00,LI2015_V16,-31.88603,115.59118,08/12/2015 04:05:00,0,32.05356,0,0.08,0,34.851,0,20.48303,0,14642,"LINESTRING (115.59118 -31.88603, 115.59599 -31.88342)"
LI2015_V16_VOYAGE.08/12/2015 04:06:00,LI2015_V16,-31.88342,115.59599,08/12/2015 04:06:00,0,32.6,0,0.08,0,34.851,0,20.26849,0,14642,"LINESTRING (115.59599 -31.88342, 115.60091 -31.88084)"
LI2015_V16_VOYAGE.08/12/2015 04:07:00,LI2015_V16,-31.88084,115.60091,08/12/2015 04:07:00,0,32.50491,0,0.073,0,34.835,0,20.28399,0,14642,"LINESTRING (115.60091 -31.88084, 115.60569 -31.87859)"
LI2015_V16_VOYAGE.08/12/2015 04:09:00,LI2015_V16,-31.8762,115.6105,08/12/2015 04:09:00,0,31.85107,0,0.08,0,34.809,0,20.24552,0,14642,"LINESTRING (115.6105 -31.8762, 115.61536 -31.87356)"
LI2015_V16_VOYAGE.08/12/2015 04:12:00,LI2015_V16,-31.86873,115.62509,08/12/2015 04:12:00,0,30.90235,0,0.08,0,34.827,0,20.30655,0,14642,"LINESTRING (115.62509 -31.86873, 115.62987 -31.86622)"
LI2015_V16_VOYAGE.08/12/2015 04:15:00,LI2015_V16,-31.8612,115.63938,08/12/2015 04:15:00,0,28.84687,0,0.08,0,34.824,0,20.31277,0,14642,"LINESTRING (115.63938 -31.8612, 115.63938 -31.8612)"
LI2015_V16_VOYAGE.08/12/2015 01:35:00,LI2015_V16,-31.97198,115.41966,08/12/2015 01:35:00,0,43.87992,0,0.08,0,34.775,0,20.1237,0,14642,"LINESTRING (115.41966 -31.97198, 115.41512 -31.97468)"
LI2015_V16_VOYAGE.08/12/2015 01:36:00,LI2015_V16,-31.97468,115.41512,08/12/2015 01:36:00,0,37.8473,0,0.0817,0,34.774,0,20.17748,0,14642,"LINESTRING (115.41512 -31.97468, 115.4103 -31.97691)"
LI2015_V16_VOYAGE.08/12/2015 01:38:00,LI2015_V16,-31.97926,115.40555,08/12/2015 01:38:00,0,42.25645,0,0.0871,0,34.787,0,20.29371,0,14642,"LINESTRING (115.40555 -31.97926, 115.40077 -31.98159)"
LI2015_V16_VOYAGE.08/12/2015 01:40:00,LI2015_V16,-31.98411,115.39609,08/12/2015 01:40:00,0,51.1706,0,0.08,0,34.802,0,20.45265,0,14642,"LINESTRING (115.39609 -31.98411, 115.39128 -31.98643)"
LI2015_V16_VOYAGE.08/12/2015 01:41:00,LI2015_V16,-31.98643,115.39128,08/12/2015 01:41:00,0,57.63338,0,0.08,0,34.808,0,20.47571,0,14642,"LINESTRING (115.39128 -31.98643, 115.38678 -31.98893)"
LI2015_V16_VOYAGE.08/12/2015 01:43:00,LI2015_V16,-31.99124,115.3833,08/12/2015 01:43:00,0,64.16459,0,0.08,0,34.813,0,,165,14642,"LINESTRING (115.3833 -31.99124, 115.38448 -31.99157)"
LI2015_V16_VOYAGE.08/12/2015 01:45:00,LI2015_V16,-31.99149,115.3845,08/12/2015 01:45:00,0,61.48799,0,0.08,0,34.811,0,,165,14642,"LINESTRING (115.3845 -31.99149, 115.38448 -31.99138)"
LI2015_V16_VOYAGE.08/12/2015 01:46:00,LI2015_V16,-31.99138,115.38448,08/12/2015 01:46:00,0,61.97162,0,0.08,0,34.809,0,,165,14642,"LINESTRING (115.38448 -31.99138, 115.38445 -31.99126)"
LI2015_V16_VOYAGE.08/12/2015 01:48:00,LI2015_V16,-31.99115,115.38446,08/12/2015 01:48:00,0,61.59203,0,0.08,0,34.812,0,,165,14642,"LINESTRING (115.38446 -31.99115, 115.38446 -31.99107)"